Showing default

VENUS, 42901

Orbit data source: Space-Track

VENUS, 42901 is an Israeli payload satellite in SSO that was launched on Wed, 02 Aug 2017 UTC via a VEGA launch vehicle from the French Guiana (FRGUI). Payload-class satellites include a variety of spacecraft equipped with specific instruments for various scientific and technological missions. These include communications satellites like Starlink; space stations such as the ISS; scientific satellites like the Hubble; Earth observation satellites from companies like Planet Labs, Umbra, and HawkEye 360; GPS; miniature CubeSats for education and research; and military/defense satellites.

Loading next visibility...
Identifier
42901, 2017-044B
Orbit
SSO
Country
Flag of ILIL / ISRA
Related business
Manufacturer
IAI
Mission
Non-operational Civil Imaging
Bus & Motor
VENMS, HET-300
Mass
264 kg wet, ~250 kg dry
Launch date (UTC)
2017-08-02 (9 years ago)
Launch vehicle
VEGA
Launch site
French Guiana (FRGUI)
Object type
Payload
Rocket body
Debris
Shape & HBR
Box + 2 Pan, 2.3 m
Radar Cross Section
3.833 m², Large (>1 m²)

Expand to show TLE details & history
Last TLE update: 22 hours ago

TLE from 22 hours ago
0 VENUS
1 42901U 17044B   26172.52113660  .00006641  00000-0  36157-3 0  9996
2 42901  97.2709 208.9580 0003207  18.4680 341.6668 15.14742218481612
Epoch: 2026-06-21T12:30Z
TLE epoch observation values (Epoch: 2026-06-21T12:30:26.202Z)
Latitude
-0.00006°
Longitude
111.62862°
Altitude
522.747 km
Speed
7.603 km/s
True Right ascension
13h 55m 49s
True Declination
0° 00' 00"
Sunlit
Object was in full shadow at epoch
Visualization orbit readout
Latitude
Unknown
Longitude
Unknown
Altitude
Unknown
Speed
Unknown
Apparent Right ascension
Unknown
Apparent Declination
Unknown
Sunlit
N/A
Visualization observer readout
Local Sidereal Time
21:37:08
Azimuth
Unknown
Elevation
Unknown
Doppler factor
Unknown
Orbital elements
Apogee altitude
520.94 km
Perigee altitude
516.517 km
Semi-major axis
6,896.865 km
Eccentricity
0.00032
Inclination
97.2709°
RAAN
208.958°
Arg. of periapsis
18.468°
True anomaly
341.65524°
Mean anomaly
341.6668°
Eccentric anomaly
341.66102°
Mean motion
3.78936 °/min
Orbital period
95 mins
BSTAR
0.00036157
Loading maneuver chart data...
Computing Atmospheric mass density...
Loading historical data...
Loading historical data...
Loading historical data...
Loading historical data...
Loading historical data...
Loading historical data...
Loading historical data...
Other satellites on launch #44 in the year 2017 (2017-08-02 UTC)

Documentation

Showing up to 5 results
|